Regional Weather Roundup
Issued by NWS

Home | Current Version | Previous Version | Graphics & Text | Print | Product List | Glossary On
Versions: 1 2 3 4 5 6 7 8 9 10 11 12 13 14 15 16 17 18 19 20 21 22 23 24 25 26 27 28 29 30 31 32 33 34 35 36 37 38 39 40 41 42 43 44 45 46 47 48 49 50
000
ASUS43 KLSX 280407
RWRMO

WEATHER SUMMARY FOR MISSOURI
NATIONAL WEATHER SERVICE SPRINGFIELD MO
1100 PM CDT FRI MAY 27 2016

NOTE: "FAIR" INDICATES FEW OR NO CLOUDS BELOW 12,000 FEET WITH NO
       SIGNIFICANT WEATHER AND/OR OBSTRUCTIONS TO VISIBILITY.
       CURRENT SKY AND/OR WEATHER CONDITIONS ARE NOT AVAILABLE FOR
       CHILLICOTHE AND FARMINGTON.

MOZ001>031-035>038-043-044-053-054-280500-
...NORTHERN AND WESTERN MISSOURI...

CITY           SKY/WX    TMP DP  RH WIND       PRES   REMARKS
KANSAS CTY INT LGT RAIN  61  58  90 NW3       29.78R
KANSAS C DTWN  HVY RAIN  62  58  86 W9        29.79R FOG
LEE`S SUMMIT   CLOUDY    70  64  81 W9        29.76R
ST JOSEPH      LGT RAIN  62  58  86 N7        29.76S
CHILLICOTHE      N/A     67  66  97 N3        29.78R
KIRKSVILLE     LGT RAIN  64  63  96 NE5       29.77S

$$
MOZ066>068-077>081-088>096-101>105-280500-
...SOUTHWEST MISSOURI...

CITY           SKY/WX    TMP DP  RH WIND       PRES   REMARKS
SPRINGFIELD    PTCLDY    68  64  87 S10       29.81R
JOPLIN         PTCLDY    69  63  81 S10       29.79S

$$
MOZ032>034-039>042-045>050-055>058-069>072-280500-
...CENTRAL MISSOURI...

CITY           SKY/WX    TMP DP  RH WIND       PRES   REMARKS
COLUMBIA       CLOUDY    68  67  96 S9        29.79R
JEFFERSON CITY CLOUDY    69  67  93 SE7       29.79S
ROLLA          CLOUDY    69  65  86 S13G25    29.81R
SEDALIA        CLEAR     70  66  87 S8        29.79R
WHITEMAN AFB   MOCLDY    68  68 100 S5        29.76R
WARRENSBURG    LGT RAIN  68  64  88 CALM      29.76F

$$
MOZ051-052-059>065-280500-
...EAST CENTRAL MISSOURI...

CITY           SKY/WX    TMP DP  RH WIND       PRES   REMARKS
ST LOUIS INTL  CLOUDY    72  67  84 S10       29.84R
SPIRIT OF STL  CLOUDY    71  68  90 S6        29.82R
ST CHARLES     CLOUDY    71  69  93 SE12      29.82S

$$
MOZ072>076-082>087-097>100-106>115-280500-
...SOUTH CENTRAL AND SOUTHEAST MISSOURI...

CITY           SKY/WX    TMP DP  RH WIND       PRES   REMARKS
CAPE GIRARDEAU CLOUDY    71  67  87 S12       29.88R
FARMINGTON     CLOUDY    70  66  87 S14       29.87R
POPLAR BLUFF   CLOUDY    70  67  90 S9        29.88R
WEST PLAINS    CLOUDY    69  64  84 S9        29.88R

$$



USA.gov is the U.S. government's official web portal to all federal, state and local government web resources and services.